Burnet, TX

8:59 AM CST on January 22, 2018 (GMT -0600)
Burnet Municipal-Craddock

Weather History for KBMQ - October, 2010

Change the Weather History Date:

Wednesday, October 13, 2010

  Actual Average Record
Temperature  
Mean Temperature 68 °F -  
Max Temperature 82 °F 76 °F 91 °F (2015)
Min Temperature 55 °F 56 °F 48 °F (2001)
Cooling Degree Days 3    
Growing Degree Days 18 (Base 50)    
Moisture  
Dew Point 49 °F    
Average Humidity 49    
Maximum Humidity 77    
Minimum Humidity 32    
Precipitation  
Precipitation 0.00 in - - ()
Sea Level Pressure  
Sea Level Pressure 30.21 in    
Wind  
Wind Speed 5 mph (North)    
Max Wind Speed 15 mph    
Max Gust Speed 25 mph    
Visibility 10 miles    
Events      
Averages and records for this station are not official NWS values.
T = Trace of Precipitation, MM = Missing Value Source: NWS Daily Summary

Daily Weather History Graph

Daily Weather History Graph

Search for Another Location

Airport or City:

Trip Planner

Search our weather history database for the weather conditions in past years. The results will help you decide how hot, cold, wet, or windy it might be!

Date:

Astronomy

Oct. 13, 2010 Rise Set
Actual Time 7:34 AM CDT 7:03 PM CDT
Civil Twilight 7:09 AM CDT 7:28 PM CDT
Nautical Twilight 6:41 AM CDT 7:55 PM CDT
Astronomical Twilight 6:13 AM CDT 8:23 PM CDT
Moon 1:36 PM CDT (10/13) No Moon Set
Length of Visible Light 12h 18m
Length of Day
11h 29m
Waxing Crescent, 38% of the Moon is Illuminated
Oct 13
Waxing Crescent
Oct 14
First Quarter
Oct 22
Full
Oct 30
Last Quarter
Nov 5
New

Hourly Weather History & Observations

Time (CDT) Temp. Dew Point Humidity Pressure Visibility Wind Dir Wind Speed Gust Speed Precip Events Conditions
12:53 AM 59.0 °F 46.9 °F 64% 30.13 in 10.0 mi Calm Calm - N/A   Clear
1:53 AM 57.9 °F 46.9 °F 67% 30.14 in 10.0 mi Calm Calm - N/A   Clear
2:53 AM 55.9 °F 48.0 °F 75% 30.14 in 10.0 mi Calm Calm - N/A   Clear
3:53 AM 55.9 °F 48.9 °F 77% 30.14 in 10.0 mi Calm Calm - N/A   Clear
5:53 AM 62.1 °F 46.9 °F 58% 30.17 in 10.0 mi NNW 6.9 mph - N/A   Clear
6:53 AM 61.0 °F 46.9 °F 60% 30.19 in 10.0 mi NNW 5.8 mph - N/A   Clear
8:53 AM 66.0 °F 50.0 °F 56% 30.24 in 10.0 mi North 5.8 mph - N/A   Clear
9:53 AM 72.0 °F 52.0 °F 49% 30.26 in 10.0 mi North 6.9 mph - N/A   Clear
10:53 AM 75.0 °F 52.0 °F 44% 30.28 in 10.0 mi North 10.4 mph - N/A   Clear
11:53 AM 77.0 °F 52.0 °F 42% 30.26 in 10.0 mi North 11.5 mph 20.7 mph N/A   Clear
12:53 PM 79.0 °F 50.0 °F 36% 30.25 in 10.0 mi North 11.5 mph 21.9 mph N/A   Clear
1:53 PM 80.1 °F 50.0 °F 35% 30.23 in 10.0 mi North 12.7 mph 19.6 mph N/A   Clear
2:53 PM 81.0 °F 48.9 °F 33% 30.21 in 10.0 mi North 15.0 mph 25.3 mph N/A   Partly Cloudy
3:53 PM 80.1 °F 48.0 °F 32% 30.19 in 10.0 mi North 12.7 mph 23.0 mph N/A   Scattered Clouds
4:53 PM 80.1 °F 48.9 °F 34% 30.19 in 10.0 mi North 12.7 mph 23.0 mph N/A   Partly Cloudy
5:53 PM 79.0 °F 48.0 °F 34% 30.19 in 10.0 mi North 12.7 mph 18.4 mph N/A   Clear
6:53 PM 75.0 °F 48.0 °F 38% 30.21 in 10.0 mi North 9.2 mph - N/A   Clear
7:53 PM 72.0 °F 50.0 °F 46% 30.23 in 10.0 mi North 5.8 mph - N/A   Clear
8:53 PM 69.1 °F 50.0 °F 51% 30.25 in 10.0 mi North 5.8 mph - N/A   Clear
10:53 PM 64.0 °F 46.0 °F 52% 30.28 in 10.0 mi North 6.9 mph - N/A   Clear
11:53 PM 63.0 °F 43.0 °F 48% 30.29 in 10.0 mi North 4.6 mph - N/A   Clear